Latest Weather Observations for Albury

IDV60801

Issued at 7:35 pm EST Wednesday 16 April 2014 (issued every 30 minutes, with the page automatically refreshed every 10 minutes)

About weather observations | Map of weather stations | Latest weather observations for VIC | Other Formats
Station Details ID: 072160 Name: ALBURY AIRPORT AWS Lat: -36.07 Lon: 146.95 Height: 163.5 m
Data from the previous 72 hours. | See also: Recent months at Albury
Date/Time
EST
Temp
°C
App
Temp
°C
Dew
Point
Rel
Hum
%
Delta-T
°C
Wind Press
QNH
hPa
Press
MSL
hPa
Rain
since 9 am
mm
Dir
 
Spd
km/h
Gust
km/h
Spd
kts
Gust
kts
16/07:30pm 15.5 15.6 10.3 71 2.7 NNW 0 0 0 0 1019.6 - 0.0
16/07:00pm 15.8 15.9 10.1 69 3.0 N 0 6 0 3 1019.6 - 0.0
16/06:30pm 16.7 15.6 9.9 64 3.6 NNW 6 6 3 3 1019.3 - 0.0
16/06:00pm 17.3 15.6 9.7 61 4.0 WNW 9 11 5 6 1019.1 1019.0 0.0
16/05:30pm 17.5 15.6 9.2 58 4.4 W 9 13 5 7 1018.9 - 0.0
16/05:00pm 19.3 16.9 8.6 50 5.6 WNW 11 15 6 8 1018.8 - 0.0
16/04:30pm 21.1 19.2 9.0 46 6.5 W 9 15 5 8 1018.6 - 0.0
16/04:00pm 21.2 18.3 8.1 43 6.9 WNW 13 20 7 11 1018.6 - 0.0
16/03:30pm 21.2 18.3 8.1 43 6.9 W 13 19 7 10 1018.8 - 0.0
16/03:00pm 21.2 18.6 9.4 47 6.3 W 13 20 7 11 1018.9 1018.8 0.0
16/02:30pm 21.3 18.7 9.5 47 6.4 WSW 13 22 7 12 1019.1 - 0.0
16/02:00pm 20.0 17.7 10.4 54 5.2 W 13 19 7 10 1019.2 - 0.0
16/01:30pm 19.2 16.4 9.9 55 5.0 W 15 20 8 11 1019.5 - 0.0
16/01:00pm 20.2 18.5 11.1 56 5.0 WNW 11 20 6 11 1019.9 - 0.0
16/12:30pm 19.0 17.4 10.3 57 4.7 S 9 19 5 10 1020.2 - 0.0
16/12:00pm 19.2 18.1 10.5 57 4.7 SSE 7 13 4 7 1020.6 1020.5 0.0
16/11:30am 18.9 18.0 10.5 58 4.6 ESE 6 13 3 7 1020.9 - 0.0
16/11:00am 18.6 17.6 10.2 58 4.5 SE 6 11 3 6 1021.3 - 0.0
16/10:30am 16.9 15.6 9.8 63 3.8 SSE 7 9 4 5 1021.4 - 0.0
16/10:00am 16.5 15.4 10.1 66 3.4 SSE 6 9 3 5 1021.6 - 0.0
16/09:30am 16.0 14.9 10.1 68 3.1 ESE 6 9 3 5 1021.8 - 0.0
16/09:00am 14.2 13.3 9.4 73 2.5 S 4 6 2 3 1021.9 1021.8 0.0
16/08:30am 13.7 13.4 8.7 72 2.5 CALM 0 0 0 0 1021.8 - 0.0
16/08:00am 11.9 11.4 8.0 77 1.9 CALM 0 0 0 0 1021.7 - 0.0
16/07:30am 10.9 10.7 9.2 89 0.9 CALM 0 6 0 3 1021.6 - 0.0
16/07:00am 10.0 9.8 8.9 93 0.5 CALM 0 0 0 0 1021.4 - 0.0
16/06:30am 8.8 8.3 7.7 93 0.5 CALM 0 0 0 0 1021.0 - 0.0
16/06:00am 9.2 8.7 8.0 92 0.6 CALM 0 0 0 0 1020.8 1020.7 0.0
16/05:30am 9.7 9.4 8.5 92 0.6 CALM 0 0 0 0 1020.6 - 0.0
16/05:00am 10.0 9.6 8.4 90 0.8 CALM 0 0 0 0 1020.3 - 0.0
16/04:30am 10.6 10.4 9.0 90 0.8 CALM 0 0 0 0 1020.3 - 0.0
16/04:00am 10.5 10.1 8.3 86 1.1 CALM 0 0 0 0 1020.1 - 0.0
16/03:30am 11.2 11.1 9.6 90 0.8 CALM 0 0 0 0 1020.0 - 0.0
16/03:09am 10.7 10.5 9.0 89 0.9 CALM 0 0 0 0 1020.1 - 0.0
16/03:00am 10.5 10.2 8.6 88 0.9 CALM 0 0 0 0 1020.2 1020.1 0.0
16/02:55am 10.6 10.3 8.7 88 0.9 CALM 0 0 0 0 1020.2 - 0.0
16/02:30am 11.0 10.8 8.9 87 1.0 CALM 0 6 0 3 1020.2 - 0.0
16/02:00am 10.4 10.0 8.2 86 1.1 CALM 0 0 0 0 1020.4 - 0.0
16/01:30am 10.7 9.6 8.3 85 1.2 WNW 4 7 2 4 1020.6 - 0.0
16/01:00am 11.4 11.2 9.0 85 1.2 CALM 0 2 0 1 1020.8 - 0.0
16/12:30am 11.9 10.4 9.3 84 1.3 NNW 7 7 4 4 1020.8 - 0.0
16/12:00am 11.8 11.5 8.8 82 1.5 WNW 0 4 0 2 1020.9 1020.8 0.0
 
Date/Time
EST
Temp
°C
App
Temp
°C
Dew
Point
Rel
Hum
%
Delta-T
°C
Wind Press
QNH
hPa
Press
MSL
hPa
Rain
since 9 am
mm
Dir
 
Spd
km/h
Gust
km/h
Spd
kts
Gust
kts
15/11:30pm 12.5 11.6 9.3 81 1.6 E 4 7 2 4 1020.9 - 0.0
15/11:00pm 12.7 11.5 9.7 82 1.5 NNW 6 7 3 4 1021.1 - 0.0
15/10:30pm 12.4 11.5 9.4 82 1.5 WNW 4 7 2 4 1021.2 - 0.0
15/10:00pm 12.4 11.9 9.4 82 1.5 ESE 2 7 1 4 1021.2 - 0.0
15/09:30pm 12.8 12.7 9.6 81 1.6 CALM 0 0 0 0 1021.1 - 0.0
15/09:00pm 13.4 13.4 9.8 79 1.9 CALM 0 0 0 0 1020.9 1020.8 0.0
15/08:30pm 14.5 13.7 9.7 73 2.5 WSW 4 6 2 3 1020.6 - 0.0
15/08:00pm 14.9 14.7 10.3 74 2.4 ESE 2 7 1 4 1020.4 - 0.0
15/07:30pm 15.0 15.1 10.2 73 2.5 CALM 0 0 0 0 1020.2 - 0.0
15/07:00pm 16.5 15.8 9.9 65 3.5 ENE 4 7 2 4 1020.0 - 0.0
15/06:30pm 17.0 15.6 9.4 61 4.0 WNW 7 9 4 5 1019.8 - 0.0
15/06:00pm 18.1 16.2 8.9 55 4.8 NW 9 13 5 7 1019.5 1019.4 0.0
15/05:30pm 20.5 19.0 8.5 46 6.3 W 6 9 3 5 1019.4 - 0.0
15/05:00pm 20.9 19.1 7.9 43 6.8 SSW 7 9 4 5 1019.3 - 0.0
15/04:30pm 21.2 19.6 8.1 43 6.9 S 6 9 3 5 1019.3 - 0.0
15/04:00pm 21.1 19.2 7.7 42 7.0 SSW 7 11 4 6 1019.3 - 0.0
15/03:30pm 22.0 20.2 7.8 40 7.5 W 7 11 4 6 1019.5 - 0.0
15/03:00pm 21.1 18.4 7.3 41 7.1 S 11 17 6 9 1019.7 1019.6 0.0
15/02:30pm 20.9 18.6 7.5 42 7.0 SSE 9 15 5 8 1019.7 - 0.0
15/02:00pm 20.7 17.9 8.4 45 6.5 S 13 20 7 11 1019.8 - 0.0
15/01:30pm 20.3 18.1 7.7 44 6.5 SSE 9 50 5 27 1019.9 - 0.0
15/01:00pm 19.9 18.3 8.9 49 5.8 SSE 7 15 4 8 1020.3 - 0.0
15/12:30pm 19.8 17.5 9.1 50 5.7 ESE 11 19 6 10 1020.8 - 0.0
15/12:00pm 19.3 16.1 8.3 49 5.7 SE 15 20 8 11 1021.5 1021.4 0.0
15/11:30am 18.3 14.8 7.4 49 5.6 SE 15 19 8 10 1021.9 - 0.0
15/11:00am 18.2 15.3 8.2 52 5.2 SE 13 20 7 11 1022.3 - 0.0
15/10:30am 17.1 13.4 6.3 49 5.3 SE 15 20 8 11 1022.6 - 0.0
15/10:00am 16.4 14.4 7.1 54 4.6 SE 7 17 4 9 1022.7 - 0.0
15/09:30am 15.0 13.0 7.3 60 3.8 S 7 9 4 5 1023.0 - 0.0
15/09:09am 14.6 13.2 7.4 62 3.6 SSE 4 9 2 5 1023.1 - 0.0
15/09:00am 13.7 11.8 6.8 63 3.3 S 6 9 3 5 1023.1 1023.0 0.0
15/08:30am 12.1 10.2 6.8 70 2.6 SSW 6 7 3 4 1023.1 - 0.0
15/08:00am 11.0 9.1 6.7 75 2.0 SSW 6 7 3 4 1022.9 - 0.0
15/07:30am 9.8 8.6 6.5 80 1.6 S 2 7 1 4 1022.6 - 0.0
15/07:15am 9.0 8.0 5.7 80 1.5 CALM 0 0 0 0 1022.5 - 0.0
15/07:00am 8.6 7.7 5.9 83 1.2 CALM 0 6 0 3 1022.3 - 0.0
15/06:55am 8.5 7.5 5.8 83 1.2 CALM 0 6 0 3 1022.2 - 0.0
15/06:30am 8.5 7.5 5.6 82 1.3 CALM 0 0 0 0 1022.0 - 0.0
15/06:00am 8.9 7.9 5.8 81 1.4 CALM 0 0 0 0 1021.9 1021.8 0.0
15/05:30am 8.7 7.1 6.2 84 1.2 SSW 4 6 2 3 1021.7 - 0.0
15/05:00am 9.0 7.0 6.4 84 1.2 WNW 6 7 3 4 1021.6 - 0.0
15/04:30am 9.5 8.8 6.8 83 1.3 CALM 0 0 0 0 1021.3 - 0.0
15/04:00am 10.0 9.1 6.2 77 1.8 CALM 0 0 0 0 1021.3 - 0.0
15/03:30am 11.8 9.3 6.5 70 2.5 SSE 9 15 5 8 1021.2 - 0.0
15/03:00am 11.3 9.1 6.2 71 2.4 E 7 9 4 5 1021.2 1021.1 0.0
15/02:30am 12.8 10.2 6.2 64 3.2 SE 9 17 5 9 1021.2 - 0.0
15/02:00am 13.5 10.5 6.1 61 3.5 SE 11 19 6 10 1021.1 - 0.0
15/01:30am 13.7 10.0 6.3 61 3.6 SSE 15 20 8 11 1021.2 - 0.0
15/01:00am 13.8 10.1 6.4 61 3.6 SSE 15 20 8 11 1021.2 - 0.0
15/12:30am 13.7 10.8 6.3 61 3.6 SSE 11 15 6 8 1021.3 - 0.0
15/12:00am 13.6 11.5 6.0 60 3.6 SSE 6 9 3 5 1021.3 1021.2 0.0
 
Date/Time
EST
Temp
°C
App
Temp
°C
Dew
Point
Rel
Hum
%
Delta-T
°C
Wind Press
QNH
hPa
Press
MSL
hPa
Rain
since 9 am
mm
Dir
 
Spd
km/h
Gust
km/h
Spd
kts
Gust
kts
14/11:30pm 13.7 11.4 5.8 59 3.8 SSE 7 11 4 6 1021.3 - 0.0
14/11:00pm 14.1 11.5 6.0 58 3.9 SSE 9 15 5 8 1021.4 - 0.0
14/10:30pm 13.9 11.3 6.0 59 3.8 SSE 9 13 5 7 1021.6 - 0.0
14/10:00pm 14.3 11.7 6.2 58 3.9 SSE 9 13 5 7 1021.6 - 0.0
14/09:30pm 14.9 11.9 6.2 56 4.2 SSE 11 13 6 7 1021.6 - 0.0
14/09:00pm 15.6 12.3 6.3 54 4.5 SSE 13 17 7 9 1021.5 1021.4 0.0
14/08:30pm 15.9 13.0 6.3 53 4.7 SSE 11 19 6 10 1021.3 - 0.0
14/08:00pm 15.9 13.5 6.9 55 4.5 S 9 15 5 8 1021.0 - 0.0
14/07:30pm 16.8 13.2 6.9 52 4.9 SSE 15 20 8 11 1020.7 - 0.0
14/07:00pm 15.7 13.5 8.0 60 3.9 S 9 15 5 8 1020.5 - 0.0
14/06:30pm 17.4 15.3 8.3 55 4.7 SSE 9 13 5 7 1020.0 - 0.0
14/06:03pm 17.5 15.8 8.4 55 4.7 S 7 9 4 5 1019.6 - 0.0
14/06:00pm 17.7 16.1 8.6 55 4.7 SSW 7 9 4 5 1019.6 1019.5 0.0
14/05:35pm 18.4 16.3 8.4 52 5.2 SW 9 11 5 6 1019.4 - 0.0
14/05:30pm 18.4 16.3 8.4 52 5.2 SSW 9 11 5 6 1019.4 - 0.0
14/05:00pm 19.3 17.2 8.3 49 5.7 S 9 13 5 7 1019.2 - 0.0
14/04:30pm 20.2 17.6 7.6 44 6.5 SE 11 17 6 9 1019.3 - 0.0
14/04:00pm 20.5 18.4 8.2 45 6.5 SE 9 13 5 7 1019.3 - 0.0
14/03:30pm 20.5 17.0 7.2 42 6.8 SSE 15 20 8 11 1019.2 - 0.0
14/03:00pm 20.6 17.2 7.6 43 6.7 SE 15 22 8 12 1019.3 1019.2 0.0
14/02:30pm 20.2 16.5 7.9 45 6.4 SE 17 22 9 12 1019.4 - 0.0
14/02:00pm 20.2 17.0 8.5 47 6.2 SE 15 26 8 14 1019.6 - 0.0
14/01:30pm 20.1 16.3 7.5 44 6.5 SE 17 24 9 13 1019.9 - 0.0
14/01:00pm 20.0 16.9 8.7 48 6.0 SSE 15 22 8 12 1020.4 - 0.0
14/12:30pm 19.6 15.8 7.7 46 6.1 SSE 17 28 9 15 1020.8 - 0.0
14/12:00pm 18.7 15.4 8.1 50 5.5 SE 15 22 8 12 1021.2 1021.1 0.0
14/11:30am 18.9 15.1 7.7 48 5.8 SE 17 22 9 12 1021.6 - 0.0
14/11:00am 18.4 14.7 7.8 50 5.4 SE 17 26 9 14 1021.7 - 0.0
14/10:30am 17.5 13.1 7.5 52 5.1 SE 20 28 11 15 1021.8 - 0.0
14/10:00am 17.1 12.8 7.7 54 4.8 SE 20 30 11 16 1021.8 - 0.0
14/09:50am 17.0 12.9 7.9 55 4.6 SE 19 26 10 14 1021.8 - 0.0
14/09:30am 16.8 13.0 7.7 55 4.6 SE 17 24 9 13 1021.8 - 0.0
14/09:00am 16.2 12.4 7.7 57 4.3 ESE 17 24 9 13 1021.7 1021.6 0.0
14/08:30am 15.6 13.4 7.9 60 3.9 ESE 9 15 5 8 1021.6 - 0.0
14/08:00am 14.8 12.0 6.9 59 3.9 SE 11 17 6 9 1021.4 - 0.0
14/07:30am 14.4 11.8 6.3 58 3.9 SE 9 15 5 8 1021.1 - 0.0
14/07:00am 13.2 10.8 6.8 65 3.1 ESE 9 11 5 6 1020.8 - 0.0
14/06:30am 13.2 10.2 6.1 62 3.4 SE 11 13 6 7 1020.6 - 0.0
14/06:00am 13.3 10.7 5.9 61 3.5 ESE 9 13 5 7 1020.5 1020.4 0.0
14/05:30am 13.3 10.2 5.7 60 3.6 SE 11 17 6 9 1020.2 - 0.0
14/05:19am 13.5 10.1 5.9 60 3.6 SE 13 17 7 9 1020.2 - 0.0
14/05:00am 13.3 10.3 5.9 61 3.5 SE 11 19 6 10 1020.1 - 0.0
14/04:55am 13.3 10.3 5.9 61 3.5 SE 11 17 6 9 1020.1 - 0.0
14/04:30am 13.4 10.8 6.0 61 3.5 SE 9 13 5 7 1020.0 - 0.0
14/04:00am 13.6 11.1 6.5 62 3.4 SE 9 13 5 7 1019.7 - 0.0
14/03:30am 13.6 11.2 6.9 64 3.3 SSE 9 13 5 7 1019.5 - 0.0
14/03:00am 13.5 11.5 7.3 66 3.0 SE 7 11 4 6 1019.7 1019.6 0.0
14/02:30am 13.8 11.9 7.6 66 3.1 SE 7 9 4 5 1019.7 - 0.0
14/02:00am 14.3 12.6 8.3 67 3.0 SE 7 9 4 5 1019.9 - 0.0
14/01:30am 14.5 12.8 8.2 66 3.2 SE 7 9 4 5 1019.9 - 0.0
14/01:00am 14.8 12.8 8.7 67 3.1 SSE 9 13 5 7 1019.8 - 0.0
14/12:30am 15.4 13.1 8.9 65 3.3 SE 11 17 6 9 1019.8 - 0.0
14/12:00am 15.7 13.7 8.7 63 3.6 ESE 9 15 5 8 1019.7 1019.6 0.0
 
Date/Time
EST
Temp
°C
App
Temp
°C
Dew
Point
Rel
Hum
%
Delta-T
°C
Wind Press
QNH
hPa
Press
MSL
hPa
Rain
since 9 am
mm
Dir
 
Spd
km/h
Gust
km/h
Spd
kts
Gust
kts
13/11:30pm 15.9 13.6 9.1 64 3.5 SE 11 13 6 7 1019.6 - 0.0
13/11:00pm 16.4 13.8 9.3 63 3.7 ESE 13 19 7 10 1019.8 - 0.0
13/10:30pm 17.0 14.0 9.4 61 4.0 ESE 15 22 8 12 1019.7 - 0.0
13/10:00pm 17.4 14.8 9.3 59 4.3 SE 13 20 7 11 1019.5 - 0.0
13/09:30pm 17.7 15.2 9.8 60 4.2 SE 13 20 7 11 1019.3 - 0.0
13/09:00pm 18.2 15.3 9.5 57 4.6 SSE 15 24 8 13 1019.1 1019.0 0.0
13/08:30pm 19.1 16.3 9.9 55 4.9 SE 15 19 8 10 1018.8 - 0.0
13/08:00pm 19.2 17.6 11.5 61 4.3 SSE 11 15 6 8 1018.6 - 0.0
13/07:51pm 19.2 17.6 11.5 61 4.3 SSE 11 17 6 9 1018.5 - 0.0

Other Formats:

Comma delimited format used in spreadsheet applications
http://www.bom.gov.au/fwo/IDV60801/IDV60801.95896.axf

JavaScript Object Notation format (JSON) in row-major order
http://www.bom.gov.au/fwo/IDV60801/IDV60801.95896.json